[[{"header":{"parameterUnit":"m.s-1","parameterCategory":1,"la1":30.2991,"la2":30.254,"lo1":-89.0895,"lo2":-89.0444,"dy":0.0017,"dx":0.0017,"nx":28,"ny":28,"refTime":"2024-08-01T03:00:00:Z","depth":0,"parameterNumber":2,"parameterNumberName":"U-component_of_WINDS"},"data":[0,0,0,0,0,0,0,0,0,0,0,0,0,0,0,0,0,0,0,0,0,0,0,0,0,0,0,0,0,0,0,0,0,0,0,0,0,0,0,0,0,0,0,0,0,0,0,0,0,0,0,0,0,0,0,0,0,0,2.3979,2.3981,0,2.411,2.4112,2.4113,2.4136,2.4135,2.4134,2.4133,2.4268,2.4272,2.4277,0,0,0,0,0,0,0,0,0,0,0,0,0,2.3751,2.3755,2.3979,2.3981,2.3982,2.411,2.4112,2.4114,2.4136,2.4135,2.4133,2.4132,2.4266,2.4272,2.4277,0,0,0,0,0,0,0,0,0,0,0,0,0,2.3863,2.3756,2.3979,2.4009,2.4013,2.411,2.4112,2.4114,2.4136,2.4135,2.4133,2.4131,2.4264,2.4271,2.4278,2.4354,0,0,2.4299,2.4302,0,0,0,0,0,0,0,0,2.3856,2.3871,2.4003,2.4007,2.4012,2.4105,2.4081,2.4195,2.4137,2.409,2.4133,2.4131,2.4215,2.4226,2.4254,2.4361,2.4366,2.43,2.4304,2.4307,2.4309,0,0,0,0,0,0,0,2.3848,2.3865,2.4031,2.4005,2.401,2.4017,2.4031,2.4102,2.416,2.4093,2.4095,2.4111,2.4217,2.4247,2.4258,2.4368,2.43,2.4306,2.431,2.4313,2.4545,2.4547,0,0,0,0,0,0,2.3835,2.3859,2.4027,2.4035,2.3928,2.4022,2.4038,2.4077,2.4159,2.417,2.4112,2.4111,2.4236,2.4249,2.4262,2.4357,2.4307,2.4314,2.4318,2.4543,2.4545,2.4548,0,0,0,0,0,0,2.383,2.385,2.4022,2.3948,2.397,2.4028,2.4071,2.408,2.411,2.4173,2.4184,2.4132,2.4236,2.4253,2.4331,2.4362,2.4317,2.4323,2.4541,2.4544,2.4547,2.4547,0,0,0,0,0,0,2.3823,2.3848,2.3877,2.3948,2.3974,2.4088,2.4073,2.4084,2.4122,2.4123,2.4195,2.4205,2.4236,2.4321,2.4338,2.4371,2.4328,2.4538,2.4542,2.4546,2.4545,2.455,2.4554,0,0,0,0,0,2.3815,2.3872,2.3878,2.3898,2.4011,2.4089,2.4104,2.4137,2.4125,2.4154,2.4195,2.4203,2.4356,2.4329,2.4349,2.4384,2.4536,2.4541,2.4545,2.4542,2.4549,2.4554,0,0,0,0,0,0,2.3802,2.3881,2.3889,2.397,2.4023,2.4093,2.4131,2.4143,2.42,2.4198,2.4238,2.4254,2.4331,2.4365,2.4333,2.4462,2.4445,2.4454,2.4437,2.4443,2.4448,2.4437,2.4334,0,0,0,0,0,2.3809,2.3865,2.3932,2.3997,2.4023,2.4073,2.4108,2.413,2.4186,2.4208,2.4254,2.4309,2.437,2.4408,2.4468,2.455,2.4567,2.4585,2.4589,2.4593,2.46,2.4647,2.4655,2.4562,2.4562,2.4562,0,0,2.3823,2.3873,2.3906,2.3996,2.4039,2.4097,2.4091,2.4153,2.4197,2.4218,2.4294,2.4331,2.4394,2.4475,2.4514,2.4507,2.4629,2.4599,2.4601,2.4606,2.4652,2.4661,2.4669,2.4565,2.4565,2.4564,0,0,2.3878,2.3922,2.3981,2.4025,2.4091,2.4124,2.4138,2.4207,2.4232,2.431,2.4327,2.438,2.4483,2.4528,2.4565,2.4639,2.4649,2.4658,2.4682,2.4727,2.4735,2.4741,2.4768,2.4777,2.4664,2.4664,2.4664,0,2.3887,2.3975,2.401,2.4072,2.4111,2.4133,2.4194,2.4235,2.4316,2.4343,2.4335,2.4466,2.451,2.4602,2.462,2.4649,2.4667,2.4649,2.4731,2.4738,2.4745,2.477,2.478,2.4665,2.4665,2.4665,2.4665,0,2.3983,2.4044,2.4084,2.4163,2.4207,2.4268,2.4313,2.4353,2.4372,2.4406,2.4486,2.454,2.4611,2.4635,2.4653,2.473,2.4724,2.4723,2.4706,2.4753,2.4778,2.4788,2.4666,2.4665,2.4665,2.4665,0,0,2.4031,2.413,2.4144,2.4181,2.4256,2.4304,2.4367,2.4436,2.447,2.4526,2.458,2.4668,2.4668,2.4709,2.4733,2.4773,2.4828,2.4767,2.4769,2.4776,2.4917,2.4917,2.4927,2.4836,2.4838,2.484,2.4912,0,2.4095,2.4206,2.4241,2.4335,2.4392,2.4415,2.447,2.4522,2.4556,2.4611,2.4649,2.471,2.4705,2.473,2.4771,2.4813,2.4857,2.4808,2.4886,2.4889,2.4868,2.4941,2.494,2.5005,2.4922,2.4923,2.4924,0,2.4183,2.4241,2.4341,2.441,2.4435,2.4483,2.455,2.4602,2.4663,2.4685,2.4732,2.4753,2.482,2.4801,2.4894,2.486,2.4895,2.492,2.4924,2.4931,2.4908,2.4949,2.5027,2.5036,2.494,2.4939,2.4938,0,2.4208,2.4311,2.4384,2.4415,2.4497,2.4531,2.4567,2.4626,2.4666,2.4725,2.4752,2.4818,2.4854,2.4905,2.4944,2.4926,2.5034,2.5018,2.5054,2.5053,2.5075,2.5073,2.5158,2.5098,2.5098,2.5098,2.5098,0,2.4275,2.4334,2.4397,2.4441,2.4509,2.4549,2.4616,2.4653,2.4706,2.4759,2.4784,2.4833,2.4882,2.4938,2.4969,2.5042,2.5058,2.5078,2.5085,2.5075,2.5073,2.5097,2.5093,2.5101,2.51,2.51,2.5099,0,2.4313,2.4357,2.4438,2.451,2.453,2.4577,2.4639,2.4684,2.472,2.4787,2.4805,2.4861,2.4929,2.4973,2.5059,2.508,2.5159,2.5166,2.5139,2.5142,2.5176,2.5172,2.5279,2.5295,2.5225,2.5226,2.5227,0,2.4351,2.4398,2.4476,2.4513,2.4549,2.4609,2.465,2.4692,2.4734,2.4808,2.4844,2.4913,2.4971,2.5078,2.5127,2.5193,2.5201,2.5234,2.5211,2.52,2.5201,2.5197,2.5202,2.5237,2.5238,2.5238,2.5239,0,2.4416,2.4436,2.4494,2.4561,2.4609,2.4664,2.4718,2.4747,2.4799,2.4845,2.4915,2.4959,2.5048,2.5116,2.5188,2.5226,2.5241,2.5246,2.5258,2.5247,2.5229,2.5239,2.5148,2.5243,2.5243,2.5242,2.5242,2.5242,2.4455,2.4498,2.4559,2.4624,2.467,2.4721,2.4766,2.4809,2.4867,2.4942,2.4965,2.5037,2.5098,2.5195,2.5235,2.5293,2.5289,2.5306,2.531,2.5314,2.5314,2.5221,2.5306,2.5306,2.5306,2.5306,2.5306,0,2.452,2.4561,2.462,2.4696,2.4747,2.4758,2.482,2.4862,2.4925,2.4981,2.5038,2.5118,2.5185,2.524,2.531,2.5346,2.5355,2.5362,2.536,2.5368,2.5313,2.5296,2.5354,2.5354,2.5354,2.5354,2.5354,2.5354,2.4559,2.4632,2.466,2.4757,2.4798,2.4869,2.4904,2.4951,2.4996,2.5085,2.5141,2.5176,2.5233,2.5307,2.5369,2.5384,2.5408,2.5414,2.543,2.5377,2.5372,2.5367,2.535,2.5419,2.5419,2.548,2.5481,2.5481]},{"header":{"parameterUnit":"m.s-1","parameterCategory":1,"la1":30.2991,"la2":30.254,"lo1":-89.0895,"lo2":-89.0444,"dy":0.0017,"dx":0.0017,"nx":28,"ny":28,"refTime":"2024-08-01T03:00:00:Z","depth":0,"parameterNumber":3,"parameterNumberName":"V-component_of_WINDS"},"data":[0,0,0,0,0,0,0,0,0,0,0,0,0,0,0,0,0,0,0,0,0,0,0,0,0,0,0,0,0,0,0,0,0,0,0,0,0,0,0,0,0,0,0,0,0,0,0,0,0,0,0,0,0,0,0,0,0,0,5.4869,5.487,0,5.4975,5.4976,5.4977,5.495,5.4948,5.4946,5.4944,5.5043,5.5047,5.5052,0,0,0,0,0,0,0,0,0,0,0,0,0,5.4632,5.4637,5.4868,5.487,5.4871,5.4975,5.4976,5.4978,5.495,5.4948,5.4945,5.4943,5.5041,5.5047,5.5052,0,0,0,0,0,0,0,0,0,0,0,0,0,5.4736,5.4638,5.4868,5.487,5.4872,5.4974,5.4976,5.4978,5.4951,5.4948,5.4945,5.4942,5.5039,5.5046,5.5053,5.5157,0,0,5.5074,5.5077,0,0,0,0,0,0,0,0,5.473,5.4745,5.4869,5.487,5.4872,5.4946,5.4929,5.5038,5.4952,5.492,5.4944,5.494,5.5012,5.5021,5.5048,5.5162,5.5166,5.5074,5.5078,5.5081,5.5083,0,0,0,0,0,0,0,5.4723,5.474,5.491,5.487,5.4872,5.4863,5.4874,5.4949,5.4982,5.4923,5.4921,5.4935,5.5013,5.5041,5.505,5.5167,5.5074,5.508,5.5084,5.5087,5.5372,5.5376,0,0,0,0,0,0,5.4716,5.4734,5.4907,5.4913,5.4792,5.4869,5.4882,5.4925,5.4981,5.4987,5.4937,5.4933,5.5031,5.5042,5.5053,5.518,5.5081,5.5088,5.5092,5.5369,5.5373,5.5377,0,0,0,0,0,0,5.4711,5.4732,5.4903,5.4824,5.4845,5.4877,5.4925,5.4929,5.4958,5.4992,5.4997,5.4961,5.5029,5.5044,5.5132,5.5183,5.5091,5.5097,5.5365,5.537,5.5375,5.5433,0,0,0,0,0,0,5.4704,5.473,5.4772,5.4825,5.4849,5.4983,5.4929,5.4933,5.4971,5.4966,5.5016,5.5021,5.5028,5.5122,5.5139,5.519,5.5102,5.536,5.5367,5.5373,5.5427,5.544,5.5451,0,0,0,0,0,5.4696,5.4782,5.4775,5.4795,5.4903,5.4986,5.4999,5.5008,5.4975,5.5016,5.5038,5.502,5.5174,5.5132,5.515,5.5204,5.5357,5.5365,5.5373,5.5421,5.5437,5.545,0,0,0,0,0,0,5.473,5.4789,5.4781,5.4888,5.4933,5.4981,5.5034,5.5024,5.5077,5.507,5.5075,5.5087,5.5178,5.5199,5.5151,5.5308,5.526,5.5272,5.5291,5.5306,5.5318,5.5311,5.5108,0,0,0,0,0,5.4751,5.4817,5.4863,5.4952,5.4976,5.5001,5.5037,5.5041,5.5086,5.5104,5.5132,5.5174,5.5232,5.527,5.5325,5.543,5.5439,5.5476,5.5488,5.5497,5.5508,5.5564,5.5581,5.5402,5.5402,5.5402,0,0,5.4793,5.4833,5.4874,5.496,5.4995,5.5061,5.5017,5.5087,5.5135,5.5113,5.52,5.5222,5.5269,5.5367,5.541,5.5387,5.5559,5.5507,5.5515,5.552,5.5574,5.5591,5.5606,5.5408,5.5407,5.5406,0,0,5.4904,5.4941,5.502,5.5057,5.5113,5.5129,5.5148,5.5199,5.5214,5.5302,5.5287,5.5342,5.5442,5.5476,5.5507,5.5632,5.5616,5.5649,5.5711,5.5766,5.578,5.5793,5.5838,5.5853,5.5659,5.5659,5.5659,0,5.4948,5.505,5.5061,5.5135,5.5172,5.5159,5.5238,5.5271,5.534,5.5365,5.5339,5.5466,5.5496,5.5601,5.5632,5.5657,5.5677,5.5643,5.5778,5.5791,5.5802,5.5845,5.5862,5.5663,5.5662,5.5662,5.5662,0,5.5102,5.5172,5.5228,5.53,5.5344,5.5419,5.5439,5.5482,5.5481,5.5499,5.5588,5.5625,5.5688,5.5713,5.5711,5.5818,5.5802,5.5777,5.5729,5.5823,5.5863,5.588,5.5668,5.5667,5.5666,5.5665,0,0,5.5236,5.5315,5.5336,5.5368,5.5429,5.5482,5.5555,5.5621,5.5657,5.5704,5.5765,5.5851,5.5829,5.5864,5.5865,5.5914,5.6011,5.5883,5.5884,5.5906,5.613,5.6149,5.6168,5.6001,5.6004,5.6006,5.6127,0,5.5353,5.5488,5.55,5.562,5.5684,5.5672,5.5736,5.5779,5.5798,5.5853,5.5872,5.5933,5.5899,5.592,5.5968,5.5989,5.6056,5.598,5.6055,5.6058,5.6045,5.6189,5.6209,5.6321,5.6142,5.6145,5.6147,0,5.5507,5.5564,5.5691,5.5744,5.5771,5.5829,5.589,5.5943,5.599,5.6,5.604,5.6036,5.6109,5.6059,5.6159,5.6107,5.6138,5.6153,5.6157,5.6165,5.6109,5.6201,5.6357,5.6374,5.6172,5.617,5.6168,0,5.5593,5.5701,5.5792,5.5819,5.5883,5.5924,5.5951,5.5996,5.6034,5.6086,5.6111,5.6169,5.6201,5.6245,5.6255,5.6218,5.6355,5.6305,5.6364,5.6364,5.6394,5.6392,5.6558,5.6413,5.6413,5.6413,5.6412,0,5.5722,5.58,5.5832,5.5887,5.5974,5.5986,5.607,5.6095,5.6135,5.6193,5.6184,5.6238,5.6248,5.6304,5.6312,5.6393,5.6407,5.6416,5.6417,5.6418,5.6417,5.6438,5.6431,5.6417,5.6416,5.6415,5.6414,0,5.5833,5.5858,5.5956,5.6009,5.6024,5.6086,5.6129,5.6181,5.62,5.6273,5.6291,5.6318,5.6383,5.6398,5.6474,5.6479,5.6576,5.6569,5.6562,5.6562,5.662,5.6614,5.6806,5.6832,5.6669,5.6671,5.6672,0,5.5915,5.5975,5.6036,5.6077,5.6108,5.6172,5.6212,5.6226,5.6267,5.6326,5.6371,5.6435,5.6488,5.6591,5.6616,5.6674,5.6669,5.6732,5.6677,5.6675,5.667,5.6667,5.6673,5.6742,5.6744,5.6745,5.6746,0,5.6056,5.6066,5.6127,5.6192,5.6242,5.6293,5.6341,5.6374,5.6393,5.644,5.6509,5.655,5.6629,5.6693,5.6751,5.6775,5.6764,5.6764,5.678,5.6781,5.6775,5.678,5.6591,5.6759,5.6758,5.6757,5.6756,5.6756,5.6155,5.6209,5.6262,5.6329,5.6368,5.6414,5.6467,5.6493,5.6551,5.662,5.6623,5.6697,5.6741,5.6819,5.6848,5.6904,5.6884,5.6908,5.6914,5.692,5.6926,5.6766,5.6914,5.6914,5.6913,5.6913,5.6913,0,5.6297,5.6331,5.6393,5.6464,5.6517,5.6505,5.6558,5.6602,5.6669,5.6714,5.6767,5.6845,5.6907,5.6937,5.6998,5.7037,5.7033,5.7052,5.705,5.7055,5.694,5.692,5.7054,5.7054,5.7054,5.7054,5.7054,5.7054,5.6377,5.6468,5.6484,5.6593,5.6625,5.6701,5.6733,5.6774,5.681,5.6899,5.6952,5.6973,5.7011,5.7075,5.713,5.7137,5.716,5.7182,5.7186,5.7078,5.7063,5.705,5.7031,5.7187,5.7187,5.7298,5.7299,5.7299]}]]